Change the Weather History Date:

Saturday, December 15, 2012

  Actual Average Record
Temperature  
Mean Temperature 50 °F 48 °F  
Max Temperature 61 °F 58 °F 74 °F (2008)
Min Temperature 38 °F 38 °F 19 °F (2010)
Degree Days  
Heating Degree Days 15 17  
Month to date heating degree days 113 232  
Since 1 July heating degree days 547 603  
Cooling Degree Days 0 0  
Month to date cooling degree days 1 0  
Year to date cooling degree days 2517 2256  
Moisture  
Dew Point 41 °F    
Average Humidity 70    
Maximum Humidity 93    
Minimum Humidity 37    
Precipitation  
Precipitation 0.00 in 0.12 in 2.33 in (2007)
Month to date precipitation 0.82 1.65  
Year to date precipitation 40.35 43.85  
Sea Level Pressure  
Sea Level Pressure 30.17 in    
Wind  
Wind Speed 0 mph (South)    
Max Wind Speed 6 mph    
Max Gust Speed 8 mph    
Visibility 10 miles    
Events      
T = Trace of Precipitation, MM = Missing Value Source: NWS Daily Summary

Daily Weather History Graph

Daily Weather History Graph

Search for Another Location

Airport or City:

Trip Planner

Search our weather history database for the weather conditions in past years. The results will help you decide how hot, cold, wet, or windy it might be!

Date:

Astronomy

Dec. 15, 2012 Rise Set
Actual Time 7:22 AM EST 5:16 PM EST
Civil Twilight 6:54 AM EST 5:44 PM EST
Nautical Twilight 6:23 AM EST 6:15 PM EST
Astronomical Twilight 5:52 AM EST 6:46 PM EST
Moon 9:18 AM EST (12/15) 8:13 PM EST (12/15)
Length of Visible Light 10h 49m
Length of Day
9h 54m
Waxing Crescent, 8% of the Moon is Illuminated
Dec 15
Waxing Crescent
Dec 20
First Quarter
Dec 28
Full
Jan 4
Last Quarter
Jan 11
New

Hourly Weather History & Observations

Time (EST) Temp. Dew Point Humidity Pressure Visibility Wind Dir Wind Speed Gust Speed Precip Events Conditions
12:53 AM 39.0 °F 37.0 °F 93% 30.27 in 8.0 mi Calm Calm - N/A   Clear
1:53 AM 39.9 °F 37.0 °F 89% 30.25 in 9.0 mi Calm Calm - N/A   Clear
2:53 AM 39.9 °F 37.0 °F 89% 30.23 in 10.0 mi Calm Calm - N/A   Clear
3:53 AM 41.0 °F 37.9 °F 89% 30.23 in 10.0 mi Calm Calm - N/A   Clear
4:53 AM 41.0 °F 37.9 °F 89% 30.22 in 10.0 mi Calm Calm - N/A   Clear
5:53 AM 42.1 °F 39.0 °F 89% 30.22 in 10.0 mi Calm Calm - N/A   Clear
6:53 AM 41.0 °F 39.0 °F 93% 30.25 in 10.0 mi Calm Calm - N/A   Clear
7:53 AM 42.1 °F 39.0 °F 89% 30.26 in 10.0 mi Calm Calm - N/A   Clear
9:53 AM 46.9 °F 37.0 °F 68% 30.26 in 10.0 mi Calm Calm - N/A   Clear
10:53 AM 48.9 °F 36.0 °F 61% 30.27 in 10.0 mi North 3.5 mph - N/A   Clear
11:53 AM 52.0 °F 36.0 °F 54% 30.23 in 10.0 mi Calm Calm - N/A   Clear
12:53 PM 55.0 °F 33.1 °F 43% 30.20 in 10.0 mi Calm Calm - N/A   Mostly Cloudy
1:53 PM 59.0 °F 34.0 °F 39% 30.18 in 10.0 mi Calm Calm - N/A   Overcast
2:53 PM 60.1 °F 37.0 °F 42% 30.16 in 10.0 mi Variable 3.5 mph - N/A   Mostly Cloudy
3:00 PM 60.8 °F 37.4 °F 42% 30.16 in 10.0 mi South 3.5 mph - N/A   Mostly Cloudy
3:13 PM 60.8 °F 37.4 °F 42% 30.15 in 10.0 mi Variable 3.5 mph - N/A   Mostly Cloudy
3:53 PM 61.0 °F 39.0 °F 44% 30.15 in 10.0 mi Calm Calm - N/A   Overcast
4:53 PM 60.1 °F 42.1 °F 51% 30.14 in 10.0 mi Calm Calm - N/A   Overcast
5:53 PM 57.9 °F 43.0 °F 58% 30.14 in 10.0 mi Calm Calm - N/A   Overcast
6:53 PM 57.9 °F 44.1 °F 60% 30.15 in 10.0 mi Calm Calm - N/A   Overcast
7:53 PM 57.9 °F 46.0 °F 65% 30.14 in 10.0 mi Calm Calm - N/A   Overcast
8:53 PM 57.0 °F 46.0 °F 67% 30.14 in 10.0 mi Calm Calm - N/A   Mostly Cloudy
9:06 PM 55.4 °F 46.4 °F 72% 30.14 in 10.0 mi Calm Calm - N/A   Scattered Clouds
9:53 PM 53.1 °F 46.9 °F 80% 30.13 in 10.0 mi Calm Calm - N/A   Partly Cloudy
10:07 PM 51.8 °F 46.4 °F 82% 30.13 in 10.0 mi Calm Calm - N/A   Mostly Cloudy
10:35 PM 53.6 °F 46.4 °F 77% 30.13 in 10.0 mi Calm Calm - N/A   Scattered Clouds
10:43 PM 53.6 °F 46.4 °F 77% 30.12 in 10.0 mi Calm Calm - N/A   Mostly Cloudy
10:51 PM 51.8 °F 46.4 °F 82% 30.12 in 10.0 mi Calm Calm - N/A   Mostly Cloudy
10:53 PM 52.0 °F 46.9 °F 83% 30.12 in 10.0 mi Calm Calm - N/A   Mostly Cloudy
11:08 PM 53.6 °F 46.4 °F 77% 30.11 in 9.0 mi Calm Calm - N/A   Mostly Cloudy
11:29 PM 53.6 °F 46.4 °F 77% 30.11 in 10.0 mi Calm Calm - N/A   Mostly Cloudy
11:50 PM 53.6 °F 46.4 °F 77% 30.11 in 9.0 mi Calm Calm - N/A   Mostly Cloudy
11:53 PM 53.1 °F 46.0 °F 77% 30.12 in 9.0 mi Calm Calm - N/A   Mostly Cloudy